Location: Lavington
(51.2833°N, 1.9833°W)
Time: 19:22:48
(UTC+00:00)

ATLAS 3B R/B - Pass Details

Date: 01 June 2020
Orbit: 1024 x 1171 km, 63.8° (Epoch: 15 June)

Event Time Altitude Azimuth Distance (km) Brightness Sun altitude
Rises 21:15:37 0° 309° (NW) 3,791 7.6 -7.6°
Reaches altitude 10° 21:18:25 10° 317° (NW) 2,849 6.7 -7.8°
Maximum altitude 21:24:41 40° 26° (NNE) 1,518 3.8 -8.4°
Drops below altitude 10° 21:31:07 10° 95° (E) 2,924 4.6 -9.0°
Enters shadow 21:33:57 - 103° (ESE) 3,876 5.2 -9.3°
